FW2254 Weather Reports


Display with metric or nautical units.
time (UTC)temp
F
wind
direction
speed
MPH
gust
MPH
rain 1hr
in
rain 24hr
in
rain mn
in
humidity
%
barometer
mb
20260905210021 85 28 0.0 4.0 0.00 0.03 0.03 81 1009.2
20260905204517 87 28 0.0 3.0 0.00 0.03 0.03 79 1008.8
20260905203017 89 28 0.0 0.0 0.00 0.03 0.03 83 1009.1
20260905201523 88 28 0.0 0.0 0.00 0.03 0.03 92 1008.9
20260905200012 86 28 0.0 0.0 0.01 0.03 0.03 92 1009.1
20260905194509 85 28 0.0 0.0 0.02 0.03 0.03 92 1009.4
20260905193016 84 28 0.0 0.0 0.03 0.03 0.03 93 1009.6
20260905191505 84 28 0.0 0.0 0.03 0.03 0.03 92 1009.8
20260905184608 87 28 0.0 2.0 0.01 0.01 0.01 81 1010.4
20260905183059 93 28 0.0 2.0 0.00 0.00 0.00 61 1010.6
20260905181600 94 28 0.0 0.0 0.00 0.00 0.00 59 1010.5
20260905180057 93 28 0.0 2.0 0.00 0.00 0.00 61 1010.7
20260905174555 93 28 0.0 1.0 0.00 0.00 0.00 60 1010.9
20260905173055 94 28 0.0 1.0 0.00 0.00 0.00 59 1011.2
20260905171554 98 28 0.0 1.0 0.00 0.00 0.00 56 1011.3
20260905170049 96 28 0.0 3.0 0.00 0.00 0.00 58 1011.5
20260905164548 95 28 0.0 4.0 0.00 0.00 0.00 60 1011.6
20260905163043 92 28 0.0 0.0 0.00 0.00 0.00 64 1011.7
20260905161539 91 28 0.0 0.0 0.00 0.00 0.00 67 1011.9
20260905160033 90 28 0.0 0.0 0.00 0.00 0.00 68 1012.1
20260905154531 89 28 0.0 2.0 0.00 0.00 0.00 69 1012.2
20260905153033 89 28 0.0 2.0 0.00 0.00 0.00 71 1012.1
20260905151525 88 28 0.0 1.0 0.00 0.00 0.00 74 1012.0
20260905150023 87 28 0.0 2.0 0.00 0.00 0.00 76 1011.7
20260905144516 85 28 0.0 1.0 0.00 0.00 0.00 78 1011.7
20260905143018 85 28 0.0 0.0 0.00 0.00 0.00 79 1011.8
20260905141513 84 28 0.0 2.0 0.00 0.00 0.00 82 1011.6
20260905140039 82 28 0.0 1.0 0.00 0.00 0.00 84 1011.7
20260905134539 81 28 0.0 0.0 0.00 0.00 0.00 87 1011.9
20260905133002 80 28 0.0 0.0 0.00 0.00 0.00 89 1011.8
20260905131502 78 28 0.0 0.0 0.00 0.00 0.00 93 1011.7
20260905130032 77 28 0.0 0.0 0.00 0.00 0.00 94 1011.7
20260905124533 76 28 0.0 0.0 0.00 0.00 0.00 94 1011.5
20260905123053 76 28 0.0 0.0 0.00 0.00 0.00 94 1011.4
20260905121525 76 28 0.0 0.0 0.00 0.00 0.00 94 1011.3
20260905120029 76 28 0.0 0.0 0.00 0.00 0.00 94 1011.1
20260905114524 76 28 0.0 0.0 0.00 0.00 0.00 94 1011.2
20260905113026 76 28 0.0 0.0 0.00 0.00 0.00 94 1011.1
20260905111523 76 28 0.0 0.0 0.00 0.00 0.00 93 1010.8
20260905110018 76 28 0.0 0.0 0.00 0.00 0.00 93 1010.8
20260905104517 76 28 0.0 0.0 0.00 0.00 0.00 93 1010.9
20260905103016 76 28 0.0 0.0 0.00 0.00 0.00 92 1010.8
20260905101514 77 28 0.0 0.0 0.00 0.00 0.00 93 1010.7
20260905100012 77 28 0.0 0.0 0.00 0.00 0.00 92 1010.8
20260905094511 77 28 0.0 0.0 0.00 0.00 0.00 92 1010.8
20260905093007 77 28 0.0 0.0 0.00 0.00 0.00 92 1010.7
20260905091506 77 28 0.0 0.0 0.00 0.00 0.00 91 1010.7
20260905090005 77 28 0.0 0.0 0.00 0.00 0.00 90 1010.5
20260905084504 77 28 0.0 0.0 0.00 0.00 0.00 90 1010.4
20260905083001 77 28 0.0 0.0 0.00 0.00 0.00 89 1010.3
20260905081601 78 28 0.0 0.0 0.00 0.00 0.00 89 1010.2
20260905080139 78 28 0.0 0.0 0.00 0.00 0.00 89 1010.5
20260905074600 78 28 0.0 0.0 0.00 0.00 0.00 88 1010.3
20260905073056 79 28 0.0 0.0 0.00 0.00 0.00 87 1010.5
20260905071553 79 28 0.0 0.0 0.00 0.00 0.00 87 1010.6
20260905070055 80 28 0.0 0.0 0.00 0.00 0.00 86 1010.9
20260905064554 80 28 0.0 0.0 0.00 0.00 0.00 86 1010.9
20260905063049 80 28 0.0 0.0 0.00 0.00 0.00 85 1011.0
20260905061554 80 28 0.0 0.0 0.00 0.00 0.00 85 1010.9
20260905060055 80 28 0.0 0.0 0.00 0.00 0.00 84 1010.7
20260905054552 80 28 0.0 0.0 0.00 0.00 0.00 84 1010.5
20260905053046 80 28 0.0 0.0 0.00 0.00 0.00 83 1010.7
20260905051550 81 28 0.0 0.0 0.00 0.00 0.00 83 1010.4
20260905050040 81 28 0.0 0.0 0.00 0.00 0.00 82 1010.5
20260905044541 81 28 0.0 0.0 0.00 0.00 0.00 82 1010.5
20260905043036 81 28 0.0 0.0 0.00 0.00 0.00 83 1010.6
20260905041559 82 28 0.0 0.0 0.00 0.00 0.00 82 1010.6
20260905040058 82 28 0.0 0.0 0.00 0.00 0.00 81 1010.4
20260905034600 83 28 0.0 0.0 0.00 0.00 0.00 80 1010.5
20260905033055 83 28 0.0 0.0 0.00 0.00 0.00 80 1010.7
20260905031554 83 28 0.0 0.0 0.00 0.00 0.00 79 1010.7
20260905030057 84 28 0.0 0.0 0.00 0.00 0.00 79 1010.6
20260905024551 84 28 0.0 0.0 0.00 0.00 0.00 79 1010.4
20260905023051 84 28 0.0 0.0 0.00 0.00 0.00 80 1010.2
20260905021552 84 28 0.0 0.0 0.00 0.00 0.00 77 1010.0
20260905020053 84 28 0.0 0.0 0.00 0.00 0.00 76 1009.9
20260905014547 85 28 0.0 0.0 0.00 0.00 0.00 74 1009.5
20260905013047 85 28 0.0 0.0 0.00 0.00 0.00 73 1009.2
20260905011609 86 28 0.0 0.0 0.00 0.00 0.00 72 1009.3
20260905010047 87 28 0.0 0.0 0.00 0.00 0.00 71 1009.1
20260905004545 88 28 0.0 0.0 0.00 0.00 0.00 68 1009.1
20260905003050 89 28 0.0 0.0 0.00 0.00 0.00 67 1009.0
20260905001546 90 28 0.0 0.0 0.00 0.00 0.00 65 1008.9
20260905000044 91 28 0.0 0.0 0.00 0.00 0.00 63 1009.0
20260904234512 92 28 0.0 4.0 0.00 0.00 0.00 60 1008.9
20260904233031 95 28 1.0 4.0 0.00 0.00 0.00 56 1009.0
20260904231509 96 28 0.0 1.0 0.00 0.00 0.00 54 1008.8
20260904230023 96 28 0.0 3.0 0.00 0.00 0.00 54 1008.6
20260904224507 96 28 0.0 4.0 0.00 0.00 0.00 53 1008.7
20260904223007 96 28 1.0 3.0 0.00 0.00 0.00 53 1008.7
20260904221505 96 28 0.0 1.0 0.00 0.00 0.00 53 1008.7
20260904220007 96 28 0.0 2.0 0.00 0.00 0.00 53 1008.7
20260904214504 96 28 0.0 4.0 0.00 0.00 0.00 52 1008.8
20260904213002 97 28 0.0 2.0 0.00 0.00 0.00 53 1009.1
20260904211558 97 28 0.0 3.0 0.00 0.00 0.00 52 1009.3
20260904210100 97 28 0.0 1.0 0.00 0.00 0.00 51 1009.4